Terminal Aerodrome Forecast
Issued by NWS Cleveland, OH

Home | Current Version | Previous Version | Graphics & Text | Print | Product List | Glossary On
Versions: 1 2 3 4 5 6 7 8 9 10 11 12 13 14 15
685
FTUS41 KCLE 061136
TAFMFD
TAF
KMFD 061136Z 0612/0712 09010KT P6SM SCT050 OVC120
     FM061400 08012KT 3SM -RA OVC025
     FM061600 09010KT 2SM -RA BR OVC008
     FM070000 25010KT P6SM OVC015
     FM070800 24008KT P6SM OVC025=

USA.gov is the U.S. government's official web portal to all federal, state and local government web resources and services.